Change the Weather History Date:

Tuesday, June 3, 2014

  Actual Average Record
Temperature  
Mean Temperature 67 °F -  
Max Temperature 78 °F 78 °F 87 °F (2007)
Min Temperature 56 °F 59 °F 50 °F (2002)
Cooling Degree Days 2    
Growing Degree Days 17 (Base 50)    
Moisture  
Dew Point 57 °F    
Average Humidity 69    
Maximum Humidity 98    
Minimum Humidity 36    
Precipitation  
Precipitation 0.00 in - - ()
Sea Level Pressure  
Sea Level Pressure 29.95 in    
Wind  
Wind Speed 4 mph ()    
Max Wind Speed 12 mph    
Max Gust Speed -    
Visibility 6.1 miles    
Events      
Averages and records for this station are not official NWS values.
T = Trace of Precipitation, MM = Missing Value Source: Averaged Metar Reports

Daily Weather History Graph

Daily Weather History Graph

Search for Another Location

Airport or City:

Trip Planner

Search our weather history database for the weather conditions in past years. The results will help you decide how hot, cold, wet, or windy it might be!

Date:

Astronomy

Jun. 03, 2014 Rise Set
Actual Time 5:20 AM EEST 8:46 PM EEST
Civil Twilight 4:44 AM EEST 9:23 PM EEST
Nautical Twilight 3:56 AM EEST 10:11 PM EEST
Astronomical Twilight 2:55 AM EEST 11:12 PM EEST
Moon 10:34 AM EEST (6/3) No Moon Set
Length of Visible Light 16h 38m
Length of Day
15h 25m
Waxing Crescent, 27% of the Moon is Illuminated
Jun 3
Waxing Crescent
Jun 5
First Quarter
Jun 13
Full
Jun 19
Last Quarter
Jun 27
New

Hourly Weather History & Observations

Time (EEST) Temp. Dew Point Humidity Pressure Visibility Wind Dir Wind Speed Gust Speed Precip Events Conditions
12:00 AM 63 °F 58 °F 80% 29.94 in 6 mi West 2.2 mph - -   Mostly Cloudy
12:00 AM 57.2 °F 55.4 °F 94% 29.95 in 5.6 mi North 4.6 mph - N/A   Unknown
1:00 AM 62 °F 59 °F 87% 29.95 in 6 mi WNW 2.2 mph - -   Mostly Cloudy
1:00 AM 57.2 °F 55.4 °F 94% 29.95 in 6.2 mi North 4.6 mph - N/A   Scattered Clouds
2:00 AM 62 °F 57 °F 80% 29.95 in 6 mi NW 4.5 mph - -   Mostly Cloudy
2:00 AM 57.2 °F 55.4 °F 94% 29.95 in 6.2 mi NW 6.9 mph - N/A   Scattered Clouds
3:00 AM 60 °F 58 °F 89% 29.95 in 6 mi WNW 2.2 mph - -   Mostly Cloudy
3:00 AM 57.2 °F 55.4 °F 94% 29.95 in 6.2 mi WNW 2.3 mph - N/A   Partly Cloudy
4:00 AM 60 °F 57 °F 88% 29.95 in - NW 2.2 mph - -  
4:00 AM 59.0 °F 55.4 °F 88% 29.95 in 6.2 mi NNW 2.3 mph - N/A   Unknown
5:00 AM 58 °F 57 °F 94% 29.96 in - NNW 2.2 mph - -  
5:00 AM 55.4 °F 51.8 °F 88% 29.95 in 6.2 mi NNW 4.6 mph - N/A   Partly Cloudy
5:30 AM 55.4 °F 53.6 °F 94% 29.95 in 6.2 mi NNW 2.3 mph - N/A   Unknown
6:00 AM 57 °F 57 °F 98% 29.96 in - Calm Calm - -  
6:30 AM 55.4 °F 53.6 °F 94% 29.98 in 6.2 mi SSW 2.3 mph - N/A   Unknown
7:00 AM 64 °F 61 °F 85% 29.96 in - West 2.2 mph - -  
7:00 AM 59.0 °F 57.2 °F 94% 29.95 in 6.2 mi Calm Calm - N/A   Partly Cloudy
7:30 AM 62.6 °F 59.0 °F 88% 29.98 in 6.2 mi Calm Calm - N/A   Unknown
8:00 AM 66 °F 57 °F 65% 29.97 in 6 mi NNW 2.2 mph - -   Clear
8:00 AM 64.4 °F 60.8 °F 88% 29.98 in - Variable 2.3 mph - N/A   Clear
8:30 AM 66.2 °F 60.8 °F 83% 29.98 in - NW 6.9 mph - N/A   Clear
9:00 AM 68 °F 58 °F 61% 29.97 in 6 mi NW 2.2 mph - -   Clear
9:00 AM 69.8 °F 59.0 °F 68% 29.98 in - NNW 4.6 mph - N/A   Clear
9:30 AM 69.8 °F 55.4 °F 60% 29.98 in - NNW 6.9 mph - N/A   Clear
10:00 AM 70 °F 56 °F 51% 29.98 in 6 mi North 4.5 mph - -   Scattered Clouds
10:00 AM 71.6 °F 57.2 °F 60% 29.98 in - North 6.9 mph - N/A   Clear
10:30 AM 71.6 °F 59.0 °F 64% 29.98 in 6.2 mi North 6.9 mph - N/A   Partly Cloudy
11:00 AM 72 °F 58 °F 51% 29.98 in 6 mi NW 4.5 mph - -   Scattered Clouds
11:00 AM 71.6 °F 57.2 °F 60% 29.98 in 6.2 mi North 6.9 mph - N/A   Partly Cloudy
11:30 AM 73.4 °F 57.2 °F 57% 29.98 in 6.2 mi NW 6.9 mph - N/A   Partly Cloudy
12:00 PM 73 °F 57 °F 46% 29.97 in 6 mi NW 4.5 mph - -   Scattered Clouds
12:00 PM 73.4 °F 57.2 °F 57% 29.98 in 6.2 mi NW 6.9 mph - N/A   Scattered Clouds
12:30 PM 73.4 °F 57.2 °F 57% 29.95 in 6.2 mi North 11.5 mph - N/A   Scattered Clouds
1:00 PM 74 °F 56 °F 42% 29.96 in 6 mi WNW 6.7 mph - -   Partly Cloudy
1:00 PM 75.2 °F 57.2 °F 53% 29.95 in 6.2 mi NNW 9.2 mph - N/A   Scattered Clouds
1:30 PM 75.2 °F 57.2 °F 53% 29.95 in 6.2 mi North 9.2 mph - N/A   Scattered Clouds
2:00 PM 76 °F 54 °F 36% 29.96 in 6 mi NNW 6.7 mph - -   Partly Cloudy
2:00 PM 75.2 °F 57.2 °F 53% 29.95 in 6.2 mi North 6.9 mph - N/A   Mostly Cloudy
2:30 PM 75.2 °F 59.0 °F 57% 29.95 in 6.2 mi North 9.2 mph - N/A   Mostly Cloudy
3:00 PM 76 °F 55 °F 38% 29.94 in 6 mi NW 4.5 mph - -   Partly Cloudy
3:00 PM 77.0 °F 59.0 °F 54% 29.95 in 6.2 mi NNW 9.2 mph - N/A   Partly Cloudy
3:30 PM 75.2 °F 57.2 °F 53% 29.95 in 6.2 mi WNW 9.2 mph - N/A   Partly Cloudy
4:00 PM 76 °F 56 °F 40% 29.94 in 6 mi WNW 6.7 mph - -   Partly Cloudy
4:00 PM 73.4 °F 55.4 °F 53% 29.95 in 6.2 mi NNW 6.9 mph - N/A   Partly Cloudy
4:30 PM 75.2 °F 55.4 °F 50% 29.92 in 6.2 mi NNW 4.6 mph - N/A   Partly Cloudy
5:00 PM 77 °F 57 °F 39% 29.93 in 6 mi NW 4.5 mph - -   Mostly Cloudy
5:00 PM 73.4 °F 57.2 °F 57% 29.92 in 6.2 mi West 4.6 mph - N/A   Scattered Clouds
5:30 PM 73.4 °F 60.8 °F 65% 29.92 in 6.2 mi WSW 4.6 mph - N/A   Partly Cloudy
6:00 PM 76 °F 56 °F 40% 29.93 in 6 mi WNW 4.5 mph - -   Mostly Cloudy
6:00 PM 68.0 °F 60.8 °F 78% 29.92 in 6.2 mi SW 6.9 mph - N/A   Partly Cloudy
6:30 PM 69.8 °F 60.8 °F 73% 29.92 in 6.2 mi SW 6.9 mph - N/A   Partly Cloudy
7:00 PM 73 °F 56 °F 44% 29.93 in 6 mi WNW 4.5 mph - -   Mostly Cloudy
7:00 PM 68.0 °F 60.8 °F 78% 29.92 in 6.2 mi West 6.9 mph - N/A   Mostly Cloudy
7:30 PM 69.8 °F 60.8 °F 73% 29.92 in - West 4.6 mph - N/A   Clear
8:00 PM 74 °F 59 °F 49% 29.92 in 6 mi WSW 6.7 mph - -   Mostly Cloudy
8:00 PM 68.0 °F 60.8 °F 78% 29.92 in 6.2 mi West 6.9 mph - N/A   Partly Cloudy
8:30 PM 66.2 °F 60.8 °F 83% 29.92 in - West 6.9 mph - N/A   Clear
9:00 PM 70 °F 59 °F 60% 29.92 in 6 mi West 2.2 mph - -   Mostly Cloudy
9:00 PM 64.4 °F 59.0 °F 83% 29.92 in - WSW 4.6 mph - N/A   Clear
10:00 PM 68 °F 57 °F 59% 29.93 in 6 mi WSW 4.5 mph - -   Mostly Cloudy
10:00 PM 62.6 °F 57.2 °F 82% 29.95 in 6.2 mi SW 2.3 mph - N/A   Unknown
11:00 PM 67 °F 58 °F 64% 29.93 in 6 mi West 4.5 mph - -   Mostly Cloudy
11:00 PM 60.8 °F 57.2 °F 88% 29.92 in 6.2 mi Variable 2.3 mph - N/A   Unknown